Regional Weather Roundup
Issued by NWS

Home | Current Version | Previous Version | Graphics & Text | Print | Product List | Glossary On
Versions: 1 2 3 4 5 6 7 8 9 10 11 12 13 14 15 16 17 18 19 20 21 22 23 24 25 26 27 28 29 30 31 32 33 34 35 36 37 38 39 40 41 42 43 44 45 46 47 48 49
000
ASUS45 KSLC 300810
RWRUT

UTAH REGIONAL WEATHER ROUNDUP
NATIONAL WEATHER SERVICE SALT LAKE CITY UT
200 AM MDT TUE SEP 30 2014

UTZ001>011-023>025-300900-

NORTHERN UTAH

CITY           SKY/WX    TMP DP  RH WIND       PRES   REMARKS
HILL AFB       CLOUDY    52  50  93 S5        30.01S
LOGAN          NOT AVBL
OGDEN          LGT RAIN  52  48  86 S8        29.99F
PROVO AIRPORT  PTCLDY    48  43  81 SE3       30.03S
SALT LAKE CITY CLOUDY    52  47  83 S7        29.99S
VERNAL         CLOUDY    47  44  90 CALM      30.02S
WENDOVER       CLOUDY    55  43  62 S3        30.00S
HEBER CITY     MOCLDY    45  41  87 N3        30.04S
WEST JORDAN    CLOUDY    50  46  87 S7        30.01S

$$

UTZ012>022-026-027-300900-

SOUTHERN UTAH

CITY           SKY/WX    TMP DP  RH WIND       PRES   REMARKS
BRYCE CANYON   CLOUDY    43  40  89 CALM      30.14S
CEDAR CITY     CLOUDY    51  42  71 S3        30.06F
MILFORD        CLEAR     47  41  80 W6        30.04R
MOAB/CYNLANDS  CLOUDY    52  45  77 SE8       30.01S
PRICE          CLOUDY    50  43  77 NE3       30.05S
ST GEORGE      PTSUNNY   63  43  48 CALM      29.99S
KANAB          CLOUDY    48  43  81 CALM      30.10S

$$

REGIONAL REPORTS     COLORADO/ARIZONA

CITY           SKY/WX    TMP DP  RH WIND       PRES   REMARKS
CRAIG, CO      CLOUDY    46  38  73 W7        30.02F
GRAND JUNCTION PTCLDY    45  42  89 E9        30.04F
RIFLE          CLOUDY    47  43  86 SE3       30.06F
MONTROSE       MOCLDY    42  41  96 SE5       30.11F
CORTEZ         CLOUDY    45  41  86 NE7       30.08F
PAGE, AZ       NOT AVBL
GRAND CANYON   CLEAR     37  35  92 CALM      30.13F
KINGMAN        NOT AVBL
FLAGSTAFF      CLEAR     36  32  85 CALM      30.14F

$$

REGIONAL REPORTS    NEVADA/IDAHO/WYOMING

CITY           SKY/WX    TMP DP  RH WIND       PRES   REMARKS
LAS VEGAS, NV  CLEAR     70  37  29 S12       29.89S
ELY            PTCLDY    46  40  79 W7        30.10F
ELKO           CLOUDY    46  42  86 CALM      30.05F
POCATELLO, ID  CLOUDY    50  50 100 SW10      29.97S
BURLEY         LGT RAIN  51  48  89 SW8       29.95F
EVANSTON, WY   CLOUDY    41  38  89 SW9       30.05F
ROCK SPRINGS   CLEAR     42  37  82 SW18      30.00F

$$


USA.gov is the U.S. government's official web portal to all federal, state and local government web resources and services.